CW5709 Weather Reports


time (UTC)temp
C
wind
direction
speed
KPH
gust
KPH
rain 1hr
cm
rain 24hr
cm
rain mn
cm
humidity
%
barometer
mb
20260508053003 13 0.0 0.0 0.00 0.00 0.00 70 1017.8
20260508051504 13 0.0 0.0 0.00 0.00 0.00 68 1017.8
20260508040012 16 0.0 0.0 0.00 0.00 0.00 62 1017.2
20260508034515 16 0.0 0.0 0.00 0.00 0.00 59 1017.2
20260508030007 18 0.0 0.0 0.00 0.00 0.00 56 1016.4
20260508024509 19 0.0 0.0 0.00 0.00 0.00 52 1016.4
20260508023016 20 0.0 0.0 0.00 0.00 0.00 50 1016.4
20260508021529 20 0.0 0.0 0.00 0.00 0.00 49 1016.2
20260508014509 21 0.0 0.0 0.00 0.00 0.00 47 1016.2
20260508011519 22 0.0 0.0 0.00 0.00 0.00 49 1016.6
20260508010025 22 0.0 0.0 0.00 0.00 0.00 49 1016.7
20260508003013 22 0.0 0.0 0.00 0.00 0.00 47 1016.7
20260508000022 22 0.0 0.0 0.00 0.00 0.00 45 1016.9
20260507234523 22 0.0 0.0 0.00 0.00 0.00 45 1016.9
20260507233034 22 0.0 0.0 0.00 0.00 0.00 43 1017.1
20260507230020 23 0.0 0.0 0.00 0.00 0.00 42 1017.5
20260507224523 23 0.0 0.0 0.00 0.00 0.00 42 1017.8
20260507221517 24 0.0 0.0 0.00 0.00 0.00 39 1018.2
20260507214521 23 0.0 0.0 0.00 0.00 0.00 41 1018.7
20260507204517 23 0.0 0.0 0.00 0.00 0.00 44 1019.2
20260507203022 23 0.0 0.0 0.00 0.00 0.00 41 1019.5
20260507201509 22 0.0 0.0 0.00 0.00 0.00 45 1019.6
20260507191526 20 0.0 0.0 0.00 0.00 0.00 51 1020.0
20260507184518 17 0.0 0.0 0.00 0.00 0.00 58 1020.2
20260507181524 16 0.0 0.0 0.00 0.00 0.00 60 1020.5
20260507180028 16 0.0 0.0 0.00 0.00 0.00 62 1020.6
20260507171520 15 0.0 0.0 0.00 0.00 0.00 69 1020.8
20260507170022 15 0.0 0.0 0.00 0.00 0.00 69 1020.8
20260507164526 15 0.0 0.0 0.00 0.00 0.00 72 1020.9
20260507163016 14 0.0 0.0 0.00 0.00 0.00 73 1020.8
20260507161521 13 0.0 0.0 0.00 0.00 0.00 74 1020.8
20260507160024 13 0.0 0.0 0.00 0.00 0.00 75 1020.9
20260507154532 13 0.0 0.0 0.00 0.00 0.00 78 1020.9
20260507153038 12 0.0 0.0 0.00 0.00 0.00 78 1021.0
20260507151518 12 0.0 0.0 0.00 0.00 0.00 81 1021.0
20260507150026 12 0.0 0.0 0.00 0.00 0.00 81 1021.1
20260507144523 12 0.0 0.0 0.00 0.00 0.00 82 1021.0
20260507143027 12 0.0 0.0 0.00 0.00 0.00 83 1020.9
20260507141504 12 0.0 0.0 0.00 0.00 0.00 83 1020.9
20260507133008 11 0.0 0.0 0.00 0.00 0.00 83 1020.7
20260507131516 11 0.0 0.0 0.00 0.00 0.00 83 1020.7
20260507130012 11 0.0 0.0 0.00 0.00 0.00 83 1020.8
20260507124511 11 0.0 0.0 0.00 0.00 0.00 82 1020.8
20260507121512 11 0.0 0.0 0.00 0.00 0.00 82 1021.1
20260507120018 11 0.0 0.0 0.00 0.00 0.00 82 1021.1
20260507114509 11 0.0 0.0 0.00 0.00 0.00 82 1021.1
20260507113010 11 0.0 0.0 0.00 0.00 0.00 83 1021.2
20260507110014 11 0.0 0.0 0.00 0.00 0.00 82 1021.3
20260507104513 11 0.0 0.0 0.00 0.00 0.00 82 1021.3
20260507103026 11 0.0 0.0 0.00 0.00 0.00 82 1021.3
20260507101515 11 0.0 0.0 0.00 0.00 0.00 82 1021.5
20260507100012 11 0.0 0.0 0.00 0.00 0.00 82 1021.5
20260507094516 11 0.0 0.0 0.00 0.00 0.00 83 1021.7
20260507093026 11 0.0 0.0 0.00 0.00 0.00 83 1021.8
20260507091515 11 0.0 0.0 0.00 0.00 0.00 84 1021.9
20260507090012 11 0.0 0.0 0.00 0.00 0.00 84 1021.9
20260507084511 11 0.0 0.0 0.00 0.00 0.00 83 1021.9
20260507083014 11 0.0 0.0 0.00 0.00 0.00 83 1022.1
20260507081511 11 0.0 0.0 0.00 0.00 0.00 83 1022.0
20260507080016 11 0.0 0.0 0.00 0.00 0.00 83 1022.0
20260507073017 11 0.0 0.0 0.00 0.00 0.00 82 1022.1
20260507071548 11 0.0 0.0 0.00 0.00 0.00 82 1022.1
20260507070016 10 0.0 0.0 0.00 0.00 0.00 82 1022.1
20260507064522 10 0.0 0.0 0.00 0.00 0.00 81 1022.1
20260507061518 11 0.0 0.0 0.00 0.00 0.00 80 1022.2
20260507060020 11 0.0 0.0 0.00 0.00 0.00 80 1022.2